Aviation Digital Data Service (ADDS)

Output produced by METARs form (0310 UTC 22 April 2018)
found at http://www.aviationweather.gov/adds/metars/
 
LECO 220300Z AUTO VRB01KT 6000 NSC 12/12 Q1016
TAF LECO 220200Z 2203/2303 17005KT 8000 NSC TX17/2213Z TN10/2206Z 
     BECMG 2206/2210 35010KT 
     TEMPO 2203/2212 3000 BR BKN010 
     PROB40 
     TEMPO 2203/2209 0800 BCFG BKN005 
     PROB40 
     TEMPO 2203/2209 0350 FG VV001
       
LEAB 220300Z 12004KT CAVOK 11/08 Q1019 NOSIG
TAF LEAB 220200Z 2203/2212 14007KT CAVOK 
     BECMG 2209/2211 14017KT 
     PROB40 
     TEMPO 2210/2212 14017G27KT
       
TAF LERI 220200Z 2203/2212 33004KT 9999 FEW040 
     BECMG 2208/2210 06010KT
       
LEAL 220300Z 36005KT CAVOK 16/11 Q1017 NOSIG
TAF LEAL 212300Z 2200/2224 06012KT 9999 FEW020 TX23/2212Z TN14/2206Z 
     TEMPO 2200/2208 36005KT 
     TEMPO 2210/2218 07018G28KT 
     PROB30 
     TEMPO 2200/2207 FEW080CB
       
LEAM 220300Z 33007KT 300V050 CAVOK 21/07 Q1013
TAF LEAM 220200Z 2203/2303 33010KT 9999 FEW030 TX29/2215Z TN19/2206Z 
     BECMG 2207/2209 06020KT 
     PROB40 
     TEMPO 2213/2219 06025G35KT 
     BECMG 2219/2221 33010KT
       
LEAS 220300Z AUTO 00000KT 9999 NCD 13/11 Q1016
TAF LEAS 220200Z 2203/2303 32008KT 8000 NSC TX18/2214Z TN12/2206Z 
     TEMPO 2203/2303 3000 BR BKN005 BKN010 
     TEMPO 2203/2209 0600 BCFG VV002 
     TEMPO 2203/2209 0350 FG VV001 
     PROB30 
     TEMPO 2215/2221 SHRA TS SCT030TCU SCT040CB
       
LEMD 220300Z 36005KT CAVOK 11/09 Q1018 NOSIG
TAF LEMD 212300Z 2200/2306 01010KT CAVOK TX26/2216Z TN12/2206Z 
     BECMG 2223/2301 12010KT 
     PROB30 
     TEMPO 2302/2306 SHRA FEW040TCU
       
LEBL 220300Z 31007KT CAVOK 15/10 Q1018 NOSIG
TAF LEBL 212300Z 2200/2224 33006KT 9999 FEW040 TX22/2212Z TN13/2206Z 
     BECMG 2207/2209 22010KT 
     BECMG 2221/2223 33006KT
       
LEBB 220300Z VRB03KT CAVOK 20/11 Q1015 NOSIG
TAF LEBB 212300Z 2200/2224 17009KT CAVOK TX25/2214Z TN14/2206Z 
     BECMG 2206/2210 34010KT 
     PROB40 
     TEMPO 2215/2224 SHRA TS SCT030TCU SCT040CB 
     PROB40 
     TEMPO 2218/2224 3000 BR BKN005 BKN010
       
LEBG 220300Z AUTO 00000KT 9999 NCD 09/07 Q1019
TAF LEBG 220200Z 2203/2212 VRB05KT CAVOK
       
LEBA 220300Z AUTO VRB02KT CAVOK 14/13 Q1013
TAF LEBA 220200Z 2203/2212 09006KT 9999 SCT035
       
TAF LEVS 220200Z 2203/2212 06010KT CAVOK
       
GCFV 220300Z 30006KT 9999 FEW025 17/13 Q1014
TAF GCFV 220200Z 2203/2303 29010KT 9999 SCT030 TX23/2214Z TN16/2206Z 
     TEMPO 2209/2216 RA 
     PROB40 
     TEMPO 2210/2218 30015G25KT
       
LEGE 220300Z 00000KT 9999 FEW050 10/08 Q1017
TAF LEGE 212300Z 2200/2224 VRB04KT 9999 FEW050 TX26/2213Z TN08/2206Z 
     PROB30 
     TEMPO 2200/2205 4000 BR 
     BECMG 2209/2212 18014KT 
     BECMG 2218/2221 VRB04KT
       
GCLP 220300Z VRB01KT 9999 SCT045 17/11 Q1015 NOSIG
TAF GCLP 220200Z 2203/2303 30010KT 9999 SCT035 TX21/2214Z TN15/2206Z 
     TEMPO 2209/2218 RA 
     BECMG 2210/2212 18007KT
       
LEGR 220300Z AUTO VRB01KT 9999 NCD 11/09 Q1014
TAF LEGR 220200Z 2203/2303 VRB03KT CAVOK TX29/2215Z TN14/2206Z 
     PROB40 
     TEMPO 2211/2215 17015KT
       
GCHI 220300Z AUTO 34017KT 9999 BKN022/// BKN027/// 18/14 Q1016
TAF GCHI 220200Z 2203/2303 34016KT 9999 SCT035 TX22/2214Z TN16/2206Z 
     TEMPO 2203/2221 35018G28KT 
     PROB40 
     TEMPO 2210/2215 DZ
       
LEIB 220300Z 04006KT CAVOK 14/11 Q1017 NOSIG
TAF LEIB 220200Z 2203/2303 08012KT 9999 FEW020 TX20/2212Z TN12/2206Z 
     TEMPO 2203/2207 02005KT 
     PROB30 
     TEMPO 2203/2205 4500 BR BKN010
       
LEAB 220300Z 12004KT CAVOK 11/08 Q1019 NOSIG
TAF LEAB 220200Z 2203/2212 14007KT CAVOK 
     BECMG 2209/2211 14017KT 
     PROB40 
     TEMPO 2210/2212 14017G27KT
       
LEAL 220300Z 36005KT CAVOK 16/11 Q1017 NOSIG
TAF LEAL 212300Z 2200/2224 06012KT 9999 FEW020 TX23/2212Z TN14/2206Z 
     TEMPO 2200/2208 36005KT 
     TEMPO 2210/2218 07018G28KT 
     PROB30 
     TEMPO 2200/2207 FEW080CB
       
LEAM 220300Z 33007KT 300V050 CAVOK 21/07 Q1013
TAF LEAM 220200Z 2203/2303 33010KT 9999 FEW030 TX29/2215Z TN19/2206Z 
     BECMG 2207/2209 06020KT 
     PROB40 
     TEMPO 2213/2219 06025G35KT 
     BECMG 2219/2221 33010KT
       
LEAS 220300Z AUTO 00000KT 9999 NCD 13/11 Q1016
TAF LEAS 220200Z 2203/2303 32008KT 8000 NSC TX18/2214Z TN12/2206Z 
     TEMPO 2203/2303 3000 BR BKN005 BKN010 
     TEMPO 2203/2209 0600 BCFG VV002 
     TEMPO 2203/2209 0350 FG VV001 
     PROB30 
     TEMPO 2215/2221 SHRA TS SCT030TCU SCT040CB
       
LEBA 220300Z AUTO VRB02KT CAVOK 14/13 Q1013
TAF LEBA 220200Z 2203/2212 09006KT 9999 SCT035
       
LEBB 220300Z VRB03KT CAVOK 20/11 Q1015 NOSIG
TAF LEBB 212300Z 2200/2224 17009KT CAVOK TX25/2214Z TN14/2206Z 
     BECMG 2206/2210 34010KT 
     PROB40 
     TEMPO 2215/2224 SHRA TS SCT030TCU SCT040CB 
     PROB40 
     TEMPO 2218/2224 3000 BR BKN005 BKN010
       
LEBG 220300Z AUTO 00000KT 9999 NCD 09/07 Q1019
TAF LEBG 220200Z 2203/2212 VRB05KT CAVOK
       
LEBL 220300Z 31007KT CAVOK 15/10 Q1018 NOSIG
TAF LEBL 212300Z 2200/2224 33006KT 9999 FEW040 TX22/2212Z TN13/2206Z 
     BECMG 2207/2209 22010KT 
     BECMG 2221/2223 33006KT
       
LEBR 220300Z AUTO 11009KT 9999 NCD 13/09 Q1018
LEBT 220300Z AUTO 35005KT 9999 NCD 11/08 Q1018
TAF LEBZ 212300Z 2200/2224 06005KT 9999 SCT030 TX24/2216Z TN13/2206Z 
     PROB40 
     TEMPO 2200/2212 4000 SHRA FEW025TCU SCT030 
     PROB40 
     TEMPO 2200/2212 3000 TSRA SCT020CB
       
LECH 220300Z AUTO VRB01KT 9000 NSC 11/08 Q1018
LECO 220300Z AUTO VRB01KT 6000 NSC 12/12 Q1016
TAF LECO 220200Z 2203/2303 17005KT 8000 NSC TX17/2213Z TN10/2206Z 
     BECMG 2206/2210 35010KT 
     TEMPO 2203/2212 3000 BR BKN010 
     PROB40 
     TEMPO 2203/2209 0800 BCFG BKN005 
     PROB40 
     TEMPO 2203/2209 0350 FG VV001
       
TAF LEDA 211400Z 2115/2215 16010KT 9999 FEW040 TX27/2213Z TN10/2206Z 
     BECMG 2120/2122 16010KT 
     BECMG 2210/2212 17010KT
       
LEGE 220300Z 00000KT 9999 FEW050 10/08 Q1017
TAF LEGE 212300Z 2200/2224 VRB04KT 9999 FEW050 TX26/2213Z TN08/2206Z 
     PROB30 
     TEMPO 2200/2205 4000 BR 
     BECMG 2209/2212 18014KT 
     BECMG 2218/2221 VRB04KT
       
LEGR 220300Z AUTO VRB01KT 9999 NCD 11/09 Q1014
TAF LEGR 220200Z 2203/2303 VRB03KT CAVOK TX29/2215Z TN14/2206Z 
     PROB40 
     TEMPO 2211/2215 17015KT
       
LEHC 220300Z AUTO VRB02KT 9999 NCD 12/06 Q1019
TAF LEHC 220200Z 2203/2303 12008KT 9999 FEW040 TX22/2213Z TN11/2206Z
       
LEIB 220300Z 04006KT CAVOK 14/11 Q1017 NOSIG
TAF LEIB 220200Z 2203/2303 08012KT 9999 FEW020 TX20/2212Z TN12/2206Z 
     TEMPO 2203/2207 02005KT 
     PROB30 
     TEMPO 2203/2205 4500 BR BKN010
       
LEJR 220300Z AUTO 00000KT CAVOK 14/14 Q1013
TAF LEJR 212300Z 2200/2224 04004KT 9999 SCT030 TX24/2215Z TN14/2206Z 
     BECMG 2210/2212 17010KT 
     PROB40 
     TEMPO 2212/2218 17015G25KT 
     PROB40 
     TEMPO 2200/2206 4000 SHRA FEW025TCU SCT030 
     PROB30 
     TEMPO 2200/2206 3000 TSRA SCT020CB
       
TAF LELC 212300Z 2200/2224 03016KT 9999 FEW025 TX22/2213Z TN13/2206Z 
     PROB40 
     TEMPO 2202/2205 03016G28KT 
     PROB40 
     TEMPO 2210/2218 03016G28KT
       
LELL 220300Z AUTO VRB02KT 9999 NCD 13/09 Q1018
TAF LELL 220200Z 2203/2303 26005KT 9999 FEW040 TX25/2213Z TN11/2206Z 
     TEMPO 2211/2217 17012KT
       
TAF LELN 220200Z 2203/2212 VRB05KT CAVOK
       
TAF LELO 220200Z 2203/2212 07010KT CAVOK
       
LEMD 220300Z 36005KT CAVOK 11/09 Q1018 NOSIG
TAF LEMD 212300Z 2200/2306 01010KT CAVOK TX26/2216Z TN12/2206Z 
     BECMG 2223/2301 12010KT 
     PROB30 
     TEMPO 2302/2306 SHRA FEW040TCU
       
LEMG 220300Z VRB01KT CAVOK 14/12 Q1013 NOSIG
TAF LEMG 212300Z 2200/2224 29005KT 9999 FEW020 TX23/2213Z TN13/2206Z 
     BECMG 2207/2209 13009KT 
     BECMG 2217/2219 VRB03KT 
     PROB40 
     TEMPO 2218/2224 4000 SHRA SCT025TCU
       
LEMH 220300Z AUTO 00000KT 9999 NCD 14/12 Q1018
TAF LEMH 220200Z 2203/2303 08005KT 9999 FEW020 TX23/2212Z TN11/2203Z 
     PROB30 
     TEMPO 2203/2207 0500 BCFG BKN002 
     BECMG 2208/2210 14007KT
       
LEMO 220300Z 24004KT 210V290 5000 BR FEW006 15/14 Q1013 NOSIG
TAF LEMO 220200Z 2203/2212 04006KT 9999 SCT020 
     PROB40 
     TEMPO 2203/2206 4000 SHRA SCT025TCU SCT035 
     PROB40 
     TEMPO 2203/2206 3000 TSRA SCT020CB SCT030
       
LEPA 220300Z VRB02KT CAVOK 12/10 Q1018 NOSIG
TAF LEPA 212300Z 2200/2224 06004KT 9999 FEW020 TX23/2212Z TN11/2206Z 
     BECMG 2209/2211 22010KT 
     BECMG 2213/2215 13010KT 
     BECMG 2218/2220 06005KT
       
LEPP 220300Z AUTO 27003KT 240V310 CAVOK 12/08 Q1018
TAF LEPP 220200Z 2203/2303 18005KT CAVOK TX24/2215Z TN10/2206Z 
     PROB40 
     TEMPO 2212/2224 SCT030TCU 
     PROB30 
     TEMPO 2218/2224 SHRA TS SCT030TCU SCT040CB
       
TAF LERI 220200Z 2203/2212 33004KT 9999 FEW040 
     BECMG 2208/2210 06010KT
       
LERS 220300Z AUTO 02001KT 9999 NCD 12/10 Q1018
TAF LERS 220200Z 2203/2303 VRB03KT 9999 FEW040 TX23/2213Z TN11/2206Z 
     TEMPO 2211/2217 18010KT
       
LERT 220300Z 10006KT 9000 FEW030 16/14 Q1013 NOSIG
TAF LERT 220200Z 2203/2212 03006KT 9999 SCT030 
     PROB40 
     TEMPO 2203/2206 4000 SHRA SCT025TCU SCT035 
     PROB40 
     TEMPO 2203/2206 3000 TSRA SCT020CB SCT030 
     BECMG 2209/2211 12010KT
       
TAF LESA 212300Z 2200/2224 VRB05KT 9999 FEW030 TX23/2216Z TN10/2206Z 
     PROB30 
     TEMPO 2202/2216 3000 SHRA FEW030TCU 
     PROB40 
     TEMPO 2202/2210 3000 BR 
     BECMG 2212/2214 03010KT
       
LESO 220300Z AUTO 18006KT 140V230 9999 NCD 21/09 Q1015
TAF LESO 212300Z 2200/2224 19009KT CAVOK TX24/2214Z TN14/2224Z 
     BECMG 2206/2210 36010KT 
     PROB40 
     TEMPO 2218/2224 3000 BR BKN005 BKN010
       
LEST 220300Z VRB02KT 9999 FEW035 11/11 Q1017 NOSIG
TAF LEST 212300Z 2200/2224 VRB03KT CAVOK TX21/2211Z TN10/2205Z 
     PROB40 
     TEMPO 2200/2209 3000 BR 
     PROB40 
     TEMPO 2200/2209 0800 BCFG 
     BECMG 2210/2214 36010KT 
     TEMPO 2212/2218 SHRA TS SCT030TCU SCT040CB
       
TAF LESU 220200Z 2203/2303 VRB04KT 9999 FEW060 TX24/2213Z TN08/2206Z 
     TEMPO 2212/2218 22010KT
       
LETL 220300Z AUTO 23003KT CAVOK 06/04 Q1020
LETO 220300Z 02005KT CAVOK 10/09 Q1018 NOSIG
TAF LETO 212300Z 2200/2224 01010KT CAVOK TX26/2216Z TN12/2206Z 
     BECMG 2222/2224 12010KT
       
LEVC 220300Z 27004KT CAVOK 13/09 Q1018 NOSIG
TAF LEVC 212300Z 2200/2224 VRB03KT 9999 FEW040 TX22/2213Z TN11/2206Z 
     PROB30 
     TEMPO 2200/2205 4500 BR 
     BECMG 2210/2212 09010KT 
     BECMG 2218/2220 VRB03KT
       
TAF LEVD 212300Z 2200/2224 VRB05KT 9999 FEW030 TX24/2216Z TN11/2206Z 
     PROB30 
     TEMPO 2202/2205 3000 SHRA FEW030TCU 
     PROB30 
     TEMPO 2223/2224 4500 BR
       
TAF LEVS 220200Z 2203/2212 06010KT CAVOK
       
LEVT 220300Z 25005KT 200V330 CAVOK 12/09 Q1017
TAF LEVT 212300Z 2200/2224 17008KT CAVOK TX22/2214Z TN08/2206Z 
     TEMPO 2221/2224 36010KT 
     PROB40 
     TEMPO 2215/2224 SHRA TS SCT030TCU SCT040CB
       
LEVX 220300Z VRB01KT CAVOK 13/12 Q1016 NOSIG
TAF LEVX 212300Z 2200/2224 VRB05KT CAVOK TX22/2214Z TN12/2205Z 
     BECMG 2210/2214 29010KT 
     PROB40 
     TEMPO 2212/2218 SHRA TS SCT030TCU SCT040CB
       
LEXJ 220300Z AUTO 25010KT 6000 NCD 15/14 Q1016
TAF LEXJ 220200Z 2203/2303 30005KT 8000 NSC TX19/2209Z TN13/2206Z 
     PROB40 
     TEMPO 2203/2209 3000 BR BKN005 BKN010 
     PROB40 
     TEMPO 2215/2221 SHRA TS SCT030TCU SCT040CB 
     PROB40 
     TEMPO 2218/2303 3000 BR BKN005 BKN010
       
LEZG 220300Z 14005KT CAVOK 14/10 Q1018
TAF LEZG 212300Z 2200/2224 11006KT 9999 FEW060 TX24/2214Z TN11/2206Z 
     PROB30 
     TEMPO 2212/2218 FEW060CB
       
LEZL 220300Z VRB02KT CAVOK 16/15 Q1012 NOSIG
TAF LEZL 220200Z 2203/2303 04006KT 9999 SCT030 TX26/2215Z TN14/2206Z 
     PROB40 
     TEMPO 2203/2206 4000 SHRA SCT025TCU SCT035 
     PROB40 
     TEMPO 2203/2206 3000 TSRA SCT020CB SCT035 
     PROB40 
     TEMPO 2217/2219 24010KT
       
LEJR 220300Z AUTO 00000KT CAVOK 14/14 Q1013
TAF LEJR 212300Z 2200/2224 04004KT 9999 SCT030 TX24/2215Z TN14/2206Z 
     BECMG 2210/2212 17010KT 
     PROB40 
     TEMPO 2212/2218 17015G25KT 
     PROB40 
     TEMPO 2200/2206 4000 SHRA FEW025TCU SCT030 
     PROB30 
     TEMPO 2200/2206 3000 TSRA SCT020CB
       
GCGM 220300Z AUTO VRB01KT 9999 SCT039/// BKN045/// OVC050/// 17/12 Q1016 RMK R09/VRB02KT ARP/VRB01KT
GCLA 220300Z AUTO 24003KT 180V330 9999 FEW027/// 17/12 Q1016
TAF GCLA 220200Z 2203/2303 VRB05KT 9999 SCT035 TX22/2214Z TN15/2206Z 
     BECMG 2210/2212 03016KT 
     TEMPO 2212/2221 03020G30KT 
     PROB40 
     TEMPO 2210/2218 RA
       
GCRR 220000Z 29009KT 9999 FEW025 SCT035 18/14 Q1015
TAF GCRR 220200Z 2203/2303 29008KT 9999 SCT030 TX23/2214Z TN14/2206Z 
     TEMPO 2209/2216 RA
       
TAF LELN 220200Z 2203/2212 VRB05KT CAVOK
       
LEMG 220300Z VRB01KT CAVOK 14/12 Q1013 NOSIG
TAF LEMG 212300Z 2200/2224 29005KT 9999 FEW020 TX23/2213Z TN13/2206Z 
     BECMG 2207/2209 13009KT 
     BECMG 2217/2219 VRB03KT 
     PROB40 
     TEMPO 2218/2224 4000 SHRA SCT025TCU
       
GEML 220300Z AUTO 09006KT 060V130 4100 BR OVC005/// 16/15 Q1013
TAF GEML 220200Z 2203/2303 09012KT 9999 SCT007 BKN015 TX20/2213Z TN15/2206Z 
     TEMPO 2203/2208 4000 BR BKN007 BKN012 
     PROB40 
     TEMPO 2212/2218 09015G25KT 
     BECMG 2219/2222 27008KT
       
LEMH 220300Z AUTO 00000KT 9999 NCD 14/12 Q1018
TAF LEMH 220200Z 2203/2303 08005KT 9999 FEW020 TX23/2212Z TN11/2203Z 
     PROB30 
     TEMPO 2203/2207 0500 BCFG BKN002 
     BECMG 2208/2210 14007KT
       
LEAB 220300Z 12004KT CAVOK 11/08 Q1019 NOSIG
TAF LEAB 220200Z 2203/2212 14007KT CAVOK 
     BECMG 2209/2211 14017KT 
     PROB40 
     TEMPO 2210/2212 14017G27KT
       
LEAL 220300Z 36005KT CAVOK 16/11 Q1017 NOSIG
TAF LEAL 212300Z 2200/2224 06012KT 9999 FEW020 TX23/2212Z TN14/2206Z 
     TEMPO 2200/2208 36005KT 
     TEMPO 2210/2218 07018G28KT 
     PROB30 
     TEMPO 2200/2207 FEW080CB
       
LEAM 220300Z 33007KT 300V050 CAVOK 21/07 Q1013
TAF LEAM 220200Z 2203/2303 33010KT 9999 FEW030 TX29/2215Z TN19/2206Z 
     BECMG 2207/2209 06020KT 
     PROB40 
     TEMPO 2213/2219 06025G35KT 
     BECMG 2219/2221 33010KT
       
LEAS 220300Z AUTO 00000KT 9999 NCD 13/11 Q1016
TAF LEAS 220200Z 2203/2303 32008KT 8000 NSC TX18/2214Z TN12/2206Z 
     TEMPO 2203/2303 3000 BR BKN005 BKN010 
     TEMPO 2203/2209 0600 BCFG VV002 
     TEMPO 2203/2209 0350 FG VV001 
     PROB30 
     TEMPO 2215/2221 SHRA TS SCT030TCU SCT040CB
       
LEBA 220300Z AUTO VRB02KT CAVOK 14/13 Q1013
TAF LEBA 220200Z 2203/2212 09006KT 9999 SCT035
       
LEBB 220300Z VRB03KT CAVOK 20/11 Q1015 NOSIG
TAF LEBB 212300Z 2200/2224 17009KT CAVOK TX25/2214Z TN14/2206Z 
     BECMG 2206/2210 34010KT 
     PROB40 
     TEMPO 2215/2224 SHRA TS SCT030TCU SCT040CB 
     PROB40 
     TEMPO 2218/2224 3000 BR BKN005 BKN010
       
LEBG 220300Z AUTO 00000KT 9999 NCD 09/07 Q1019
TAF LEBG 220200Z 2203/2212 VRB05KT CAVOK
       
LEBL 220300Z 31007KT CAVOK 15/10 Q1018 NOSIG
TAF LEBL 212300Z 2200/2224 33006KT 9999 FEW040 TX22/2212Z TN13/2206Z 
     BECMG 2207/2209 22010KT 
     BECMG 2221/2223 33006KT
       
LEBR 220300Z AUTO 11009KT 9999 NCD 13/09 Q1018
LEBT 220300Z AUTO 35005KT 9999 NCD 11/08 Q1018
TAF LEBZ 212300Z 2200/2224 06005KT 9999 SCT030 TX24/2216Z TN13/2206Z 
     PROB40 
     TEMPO 2200/2212 4000 SHRA FEW025TCU SCT030 
     PROB40 
     TEMPO 2200/2212 3000 TSRA SCT020CB
       
LECH 220300Z AUTO VRB01KT 9000 NSC 11/08 Q1018
LECO 220300Z AUTO VRB01KT 6000 NSC 12/12 Q1016
TAF LECO 220200Z 2203/2303 17005KT 8000 NSC TX17/2213Z TN10/2206Z 
     BECMG 2206/2210 35010KT 
     TEMPO 2203/2212 3000 BR BKN010 
     PROB40 
     TEMPO 2203/2209 0800 BCFG BKN005 
     PROB40 
     TEMPO 2203/2209 0350 FG VV001
       
TAF LEDA 211400Z 2115/2215 16010KT 9999 FEW040 TX27/2213Z TN10/2206Z 
     BECMG 2120/2122 16010KT 
     BECMG 2210/2212 17010KT
       
LEGE 220300Z 00000KT 9999 FEW050 10/08 Q1017
TAF LEGE 212300Z 2200/2224 VRB04KT 9999 FEW050 TX26/2213Z TN08/2206Z 
     PROB30 
     TEMPO 2200/2205 4000 BR 
     BECMG 2209/2212 18014KT 
     BECMG 2218/2221 VRB04KT
       
LEGR 220300Z AUTO VRB01KT 9999 NCD 11/09 Q1014
TAF LEGR 220200Z 2203/2303 VRB03KT CAVOK TX29/2215Z TN14/2206Z 
     PROB40 
     TEMPO 2211/2215 17015KT
       
LEHC 220300Z AUTO VRB02KT 9999 NCD 12/06 Q1019
TAF LEHC 220200Z 2203/2303 12008KT 9999 FEW040 TX22/2213Z TN11/2206Z
       
LEIB 220300Z 04006KT CAVOK 14/11 Q1017 NOSIG
TAF LEIB 220200Z 2203/2303 08012KT 9999 FEW020 TX20/2212Z TN12/2206Z 
     TEMPO 2203/2207 02005KT 
     PROB30 
     TEMPO 2203/2205 4500 BR BKN010
       
LEJR 220300Z AUTO 00000KT CAVOK 14/14 Q1013
TAF LEJR 212300Z 2200/2224 04004KT 9999 SCT030 TX24/2215Z TN14/2206Z 
     BECMG 2210/2212 17010KT 
     PROB40 
     TEMPO 2212/2218 17015G25KT 
     PROB40 
     TEMPO 2200/2206 4000 SHRA FEW025TCU SCT030 
     PROB30 
     TEMPO 2200/2206 3000 TSRA SCT020CB
       
TAF LELC 212300Z 2200/2224 03016KT 9999 FEW025 TX22/2213Z TN13/2206Z 
     PROB40 
     TEMPO 2202/2205 03016G28KT 
     PROB40 
     TEMPO 2210/2218 03016G28KT
       
LELL 220300Z AUTO VRB02KT 9999 NCD 13/09 Q1018
TAF LELL 220200Z 2203/2303 26005KT 9999 FEW040 TX25/2213Z TN11/2206Z 
     TEMPO 2211/2217 17012KT
       
TAF LELN 220200Z 2203/2212 VRB05KT CAVOK
       
TAF LELO 220200Z 2203/2212 07010KT CAVOK
       
LEMD 220300Z 36005KT CAVOK 11/09 Q1018 NOSIG
TAF LEMD 212300Z 2200/2306 01010KT CAVOK TX26/2216Z TN12/2206Z 
     BECMG 2223/2301 12010KT 
     PROB30 
     TEMPO 2302/2306 SHRA FEW040TCU
       
LEMG 220300Z VRB01KT CAVOK 14/12 Q1013 NOSIG
TAF LEMG 212300Z 2200/2224 29005KT 9999 FEW020 TX23/2213Z TN13/2206Z 
     BECMG 2207/2209 13009KT 
     BECMG 2217/2219 VRB03KT 
     PROB40 
     TEMPO 2218/2224 4000 SHRA SCT025TCU
       
LEMH 220300Z AUTO 00000KT 9999 NCD 14/12 Q1018
TAF LEMH 220200Z 2203/2303 08005KT 9999 FEW020 TX23/2212Z TN11/2203Z 
     PROB30 
     TEMPO 2203/2207 0500 BCFG BKN002 
     BECMG 2208/2210 14007KT
       
LEMO 220300Z 24004KT 210V290 5000 BR FEW006 15/14 Q1013 NOSIG
TAF LEMO 220200Z 2203/2212 04006KT 9999 SCT020 
     PROB40 
     TEMPO 2203/2206 4000 SHRA SCT025TCU SCT035 
     PROB40 
     TEMPO 2203/2206 3000 TSRA SCT020CB SCT030
       
LEPA 220300Z VRB02KT CAVOK 12/10 Q1018 NOSIG
TAF LEPA 212300Z 2200/2224 06004KT 9999 FEW020 TX23/2212Z TN11/2206Z 
     BECMG 2209/2211 22010KT 
     BECMG 2213/2215 13010KT 
     BECMG 2218/2220 06005KT
       
LEPP 220300Z AUTO 27003KT 240V310 CAVOK 12/08 Q1018
TAF LEPP 220200Z 2203/2303 18005KT CAVOK TX24/2215Z TN10/2206Z 
     PROB40 
     TEMPO 2212/2224 SCT030TCU 
     PROB30 
     TEMPO 2218/2224 SHRA TS SCT030TCU SCT040CB
       
TAF LERI 220200Z 2203/2212 33004KT 9999 FEW040 
     BECMG 2208/2210 06010KT
       
LERS 220300Z AUTO 02001KT 9999 NCD 12/10 Q1018
TAF LERS 220200Z 2203/2303 VRB03KT 9999 FEW040 TX23/2213Z TN11/2206Z 
     TEMPO 2211/2217 18010KT
       
LERT 220300Z 10006KT 9000 FEW030 16/14 Q1013 NOSIG
TAF LERT 220200Z 2203/2212 03006KT 9999 SCT030 
     PROB40 
     TEMPO 2203/2206 4000 SHRA SCT025TCU SCT035 
     PROB40 
     TEMPO 2203/2206 3000 TSRA SCT020CB SCT030 
     BECMG 2209/2211 12010KT
       
TAF LESA 212300Z 2200/2224 VRB05KT 9999 FEW030 TX23/2216Z TN10/2206Z 
     PROB30 
     TEMPO 2202/2216 3000 SHRA FEW030TCU 
     PROB40 
     TEMPO 2202/2210 3000 BR 
     BECMG 2212/2214 03010KT
       
LESO 220300Z AUTO 18006KT 140V230 9999 NCD 21/09 Q1015
TAF LESO 212300Z 2200/2224 19009KT CAVOK TX24/2214Z TN14/2224Z 
     BECMG 2206/2210 36010KT 
     PROB40 
     TEMPO 2218/2224 3000 BR BKN005 BKN010
       
LEST 220300Z VRB02KT 9999 FEW035 11/11 Q1017 NOSIG
TAF LEST 212300Z 2200/2224 VRB03KT CAVOK TX21/2211Z TN10/2205Z 
     PROB40 
     TEMPO 2200/2209 3000 BR 
     PROB40 
     TEMPO 2200/2209 0800 BCFG 
     BECMG 2210/2214 36010KT 
     TEMPO 2212/2218 SHRA TS SCT030TCU SCT040CB
       
TAF LESU 220200Z 2203/2303 VRB04KT 9999 FEW060 TX24/2213Z TN08/2206Z 
     TEMPO 2212/2218 22010KT
       
LETL 220300Z AUTO 23003KT CAVOK 06/04 Q1020
LETO 220300Z 02005KT CAVOK 10/09 Q1018 NOSIG
TAF LETO 212300Z 2200/2224 01010KT CAVOK TX26/2216Z TN12/2206Z 
     BECMG 2222/2224 12010KT
       
LEVC 220300Z 27004KT CAVOK 13/09 Q1018 NOSIG
TAF LEVC 212300Z 2200/2224 VRB03KT 9999 FEW040 TX22/2213Z TN11/2206Z 
     PROB30 
     TEMPO 2200/2205 4500 BR 
     BECMG 2210/2212 09010KT 
     BECMG 2218/2220 VRB03KT
       
TAF LEVD 212300Z 2200/2224 VRB05KT 9999 FEW030 TX24/2216Z TN11/2206Z 
     PROB30 
     TEMPO 2202/2205 3000 SHRA FEW030TCU 
     PROB30 
     TEMPO 2223/2224 4500 BR
       
TAF LEVS 220200Z 2203/2212 06010KT CAVOK
       
LEVT 220300Z 25005KT 200V330 CAVOK 12/09 Q1017
TAF LEVT 212300Z 2200/2224 17008KT CAVOK TX22/2214Z TN08/2206Z 
     TEMPO 2221/2224 36010KT 
     PROB40 
     TEMPO 2215/2224 SHRA TS SCT030TCU SCT040CB
       
LEVX 220300Z VRB01KT CAVOK 13/12 Q1016 NOSIG
TAF LEVX 212300Z 2200/2224 VRB05KT CAVOK TX22/2214Z TN12/2205Z 
     BECMG 2210/2214 29010KT 
     PROB40 
     TEMPO 2212/2218 SHRA TS SCT030TCU SCT040CB
       
LEXJ 220300Z AUTO 25010KT 6000 NCD 15/14 Q1016
TAF LEXJ 220200Z 2203/2303 30005KT 8000 NSC TX19/2209Z TN13/2206Z 
     PROB40 
     TEMPO 2203/2209 3000 BR BKN005 BKN010 
     PROB40 
     TEMPO 2215/2221 SHRA TS SCT030TCU SCT040CB 
     PROB40 
     TEMPO 2218/2303 3000 BR BKN005 BKN010
       
LEZG 220300Z 14005KT CAVOK 14/10 Q1018
TAF LEZG 212300Z 2200/2224 11006KT 9999 FEW060 TX24/2214Z TN11/2206Z 
     PROB30 
     TEMPO 2212/2218 FEW060CB
       
LEZL 220300Z VRB02KT CAVOK 16/15 Q1012 NOSIG
TAF LEZL 220200Z 2203/2303 04006KT 9999 SCT030 TX26/2215Z TN14/2206Z 
     PROB40 
     TEMPO 2203/2206 4000 SHRA SCT025TCU SCT035 
     PROB40 
     TEMPO 2203/2206 3000 TSRA SCT020CB SCT035 
     PROB40 
     TEMPO 2217/2219 24010KT
       
LEMO 220300Z 24004KT 210V290 5000 BR FEW006 15/14 Q1013 NOSIG
TAF LEMO 220200Z 2203/2212 04006KT 9999 SCT020 
     PROB40 
     TEMPO 2203/2206 4000 SHRA SCT025TCU SCT035 
     PROB40 
     TEMPO 2203/2206 3000 TSRA SCT020CB SCT030
       
LEPP 220300Z AUTO 27003KT 240V310 CAVOK 12/08 Q1018
TAF LEPP 220200Z 2203/2303 18005KT CAVOK TX24/2215Z TN10/2206Z 
     PROB40 
     TEMPO 2212/2224 SCT030TCU 
     PROB30 
     TEMPO 2218/2224 SHRA TS SCT030TCU SCT040CB
       
LERS 220300Z AUTO 02001KT 9999 NCD 12/10 Q1018
TAF LERS 220200Z 2203/2303 VRB03KT 9999 FEW040 TX23/2213Z TN11/2206Z 
     TEMPO 2211/2217 18010KT
       
LERT 220300Z 10006KT 9000 FEW030 16/14 Q1013 NOSIG
TAF LERT 220200Z 2203/2212 03006KT 9999 SCT030 
     PROB40 
     TEMPO 2203/2206 4000 SHRA SCT025TCU SCT035 
     PROB40 
     TEMPO 2203/2206 3000 TSRA SCT020CB SCT030 
     BECMG 2209/2211 12010KT
       
TAF LESA 212300Z 2200/2224 VRB05KT 9999 FEW030 TX23/2216Z TN10/2206Z 
     PROB30 
     TEMPO 2202/2216 3000 SHRA FEW030TCU 
     PROB40 
     TEMPO 2202/2210 3000 BR 
     BECMG 2212/2214 03010KT
       
LESO 220300Z AUTO 18006KT 140V230 9999 NCD 21/09 Q1015
TAF LESO 212300Z 2200/2224 19009KT CAVOK TX24/2214Z TN14/2224Z 
     BECMG 2206/2210 36010KT 
     PROB40 
     TEMPO 2218/2224 3000 BR BKN005 BKN010
       
LEXJ 220300Z AUTO 25010KT 6000 NCD 15/14 Q1016
TAF LEXJ 220200Z 2203/2303 30005KT 8000 NSC TX19/2209Z TN13/2206Z 
     PROB40 
     TEMPO 2203/2209 3000 BR BKN005 BKN010 
     PROB40 
     TEMPO 2215/2221 SHRA TS SCT030TCU SCT040CB 
     PROB40 
     TEMPO 2218/2303 3000 BR BKN005 BKN010
       
LEST 220300Z VRB02KT 9999 FEW035 11/11 Q1017 NOSIG
TAF LEST 212300Z 2200/2224 VRB03KT CAVOK TX21/2211Z TN10/2205Z 
     PROB40 
     TEMPO 2200/2209 3000 BR 
     PROB40 
     TEMPO 2200/2209 0800 BCFG 
     BECMG 2210/2214 36010KT 
     TEMPO 2212/2218 SHRA TS SCT030TCU SCT040CB
       
TAF LESU 220200Z 2203/2303 VRB04KT 9999 FEW060 TX24/2213Z TN08/2206Z 
     TEMPO 2212/2218 22010KT
       
LEZL 220300Z VRB02KT CAVOK 16/15 Q1012 NOSIG
TAF LEZL 220200Z 2203/2303 04006KT 9999 SCT030 TX26/2215Z TN14/2206Z 
     PROB40 
     TEMPO 2203/2206 4000 SHRA SCT025TCU SCT035 
     PROB40 
     TEMPO 2203/2206 3000 TSRA SCT020CB SCT035 
     PROB40 
     TEMPO 2217/2219 24010KT
       
TAF LEBZ 212300Z 2200/2224 06005KT 9999 SCT030 TX24/2216Z TN13/2206Z 
     PROB40 
     TEMPO 2200/2212 4000 SHRA FEW025TCU SCT030 
     PROB40 
     TEMPO 2200/2212 3000 TSRA SCT020CB
       
GCXO 220300Z AUTO 29017KT 260V320 9000 2700NW -RA BKN004/// OVC010/// 13/13 Q1016
TAF GCXO 220200Z 2203/2303 30019KT 9999 BKN014 TX15/2214Z TN10/2206Z 
     PROB40 
     TEMPO 2203/2209 28017G27KT 
     TEMPO 2203/2303 4900 RA BKN008 
     PROB40 
     TEMPO 2203/2303 2900 RA BKN004
       
GCTS 220300Z 36003KT 9999 FEW045 16/10 Q1015 NOSIG
TAF GCTS 220200Z 2203/2303 VRB05KT 9999 SCT030 TX22/2214Z TN15/2206Z 
     BECMG 2209/2211 17010KT
       
LETO 220300Z 02005KT CAVOK 10/09 Q1018 NOSIG
TAF LETO 212300Z 2200/2224 01010KT CAVOK TX26/2216Z TN12/2206Z 
     BECMG 2222/2224 12010KT
       
LEVC 220300Z 27004KT CAVOK 13/09 Q1018 NOSIG
TAF LEVC 212300Z 2200/2224 VRB03KT 9999 FEW040 TX22/2213Z TN11/2206Z 
     PROB30 
     TEMPO 2200/2205 4500 BR 
     BECMG 2210/2212 09010KT 
     BECMG 2218/2220 VRB03KT
       
TAF LEVD 212300Z 2200/2224 VRB05KT 9999 FEW030 TX24/2216Z TN11/2206Z 
     PROB30 
     TEMPO 2202/2205 3000 SHRA FEW030TCU 
     PROB30 
     TEMPO 2223/2224 4500 BR
       
LEVX 220300Z VRB01KT CAVOK 13/12 Q1016 NOSIG
TAF LEVX 212300Z 2200/2224 VRB05KT CAVOK TX22/2214Z TN12/2205Z 
     BECMG 2210/2214 29010KT 
     PROB40 
     TEMPO 2212/2218 SHRA TS SCT030TCU SCT040CB
       
LEVT 220300Z 25005KT 200V330 CAVOK 12/09 Q1017
TAF LEVT 212300Z 2200/2224 17008KT CAVOK TX22/2214Z TN08/2206Z 
     TEMPO 2221/2224 36010KT 
     PROB40 
     TEMPO 2215/2224 SHRA TS SCT030TCU SCT040CB
       
LEZG 220300Z 14005KT CAVOK 14/10 Q1018
TAF LEZG 212300Z 2200/2224 11006KT 9999 FEW060 TX24/2214Z TN11/2206Z 
     PROB30 
     TEMPO 2212/2218 FEW060CB